User: anonymous   Login
Location: Unspecified
(0.0000°N, 0.0000°E)
Time: 13:45:34
(UTC+02:00)
Language:

Sapphire - Orbit

View from above orbital plane
View from above orbital plane
View from above satellite
View from above satellite

Ground track
Ground track

The orbit data is extracted from the following two-line orbital elements,

1 26932U 01043D   16121.84175591 -.00000012  00000-0  27480-4 0  9990
2 26932  67.0561  76.8210 0009118 265.4141  94.5919 14.30208598761400
Epoch (UTC): 30 April 2016 20:12:07
Eccentricity: 0.0009118
inclination: 67.0561°
perigee height: 784 km
apogee height: 797 km
right ascension of ascending node: 76.8210°
argument of perigee: 265.4141°
revolutions per day: 14.30208598
mean anomaly at epoch: 94.5919°
orbit number at epoch: 76140

The dashed part of the orbit path shows where the satellite is in the earth's shadow,  

DLR